Theta_e
299 299 300 300 301 300 300 300 299 297 296 295 295 299 300 300 301 301 301 299 297 297 297 296 296 297 294 290 288 287 285 285 283 279 281 282 281 281 281 282 282 282 282
299 299 299 299 299 298 298 298 297 296 294 294 292 294 296 297 298 298 298 298 296 295 295 295 294 295 291 290 287 286 286 284 282 278 279 279 280 281 281 280 280 281 281
297 297 297 297 297 296 296 296 295 294 293 291 290 289 289 292 294 295 296 295 295 296 295 293 293 290 288 287 287 286 285 283 282 280 278 279 279 280 279 278 279 280 281
297 296 296 296 296 296 295 295 293 292 291 288 288 288 287 287 288 290 290 292 292 292 292 292 291 289 288 286 285 285 283 282 281 280 278 278 278 279 279 278 278 280 280
295 295 296 295 294 295 293 291 290 289 288 287 286 285 285 285 286 288 288 289 289 288 287 287 287 287 287 287 285 283 283 282 281 279 277 278 277 277 277 279 279 279 279
292 292 293 292 290 290 290 289 288 288 286 285 284 284 283 285 288 290 289 287 287 286 285 284 284 284 285 288 287 287 286 282 279 279 278 277 278 279 279 279 278 277 276
287 287 287 287 287 288 288 288 287 286 285 284 284 282 282 283 288 290 290 286 286 285 284 283 283 284 284 285 287 288 287 286 284 283 280 281 279 280 280 279 279 278 277
285 285 285 285 285 286 286 286 285 284 283 283 282 281 282 284 288 289 289 285 285 284 284 283 283 282 284 284 283 282 282 284 285 285 284 283 282 282 282 281 280 279 278
284 284 284 284 283 284 284 284 281 279 279 279 280 280 283 284 287 289 289 283 283 283 283 283 283 283 285 286 282 281 282 283 286 287 286 286 286 286 283 281 276 275 274
283 284 283 282 280 281 282 280 278 276 280 279 279 279 283 284 286 288 289 283 282 282 282 282 283 283 287 287 282 281 281 281 282 282 282 284 285 285 285 280 278 274 272
281 281 281 281 279 279 278 276 274 274 279 282 282 282 282 283 283 288 290 283 282 281 281 281 282 286 287 287 284 283 283 282 283 281 281 281 280 280 280 280 279 275 270
279 278 277 276 277 278 272 272 272 281 282 281 280 280 280 281 283 286 289 286 284 281 280 280 281 286 287 287 285 286 287 283 281 278 277 277 277 276 277 276 275 273 273
273 274 272 273 274 275 272 273 277 280 281 279 279 279 278 279 281 286 288 288 285 281 281 282 283 286 287 287 287 287 284 280 279 277 276 276 276 276 275 272 271 270 270
274 275 275 274 275 273 276 276 277 278 279 279 279 278 278 279 280 282 284 286 284 283 283 283 284 285 286 286 284 285 282 279 279 277 275 273 273 273 270 268 265 264 261
276 275 276 275 274 277 278 277 278 275 276 277 279 279 278 278 280 283 285 283 283 281 281 282 282 282 283 282 283 282 281 279 278 274 273 270 271 271 268 265 264 259 258
278 275 275 275 274 276 273 276 283 283 283 284 284 282 280 282 283 285 286 286 285 284 279 279 280 282 281 279 278 275 275 277 277 274 273 271 270 269 267 264 263 257 257
272 278 275 274 273 274 275 274 275 281 286 286 286 285 284 282 284 284 285 287 286 285 280 280 280 280 275 277 276 274 273 274 273 273 272 271 270 268 266 264 261 260 259
271 275 279 278 272 273 275 274 277 278 277 277 282 285 285 284 285 285 286 286 283 284 280 279 279 277 275 275 274 272 270 270 271 270 270 269 268 266 263 262 262 260 259
270 273 279 277 275 274 277 277 277 277 277 276 277 280 278 284 285 285 286 283 282 281 279 278 278 277 276 275 273 272 272 270 270 268 268 266 264 263 261 262 262 260 257
270 273 278 275 275 275 278 277 276 276 274 275 275 274 275 276 276 275 276 278 277 276 278 279 278 276 276 275 273 272 270 268 267 266 265 264 262 263 262 260 260 257 256
270 273 276 276 275 275 276 276 275 275 274 273 272 274 278 274 273 273 272 271 271 271 271 272 271 269 267 268 267 265 265 265 264 263 262 261 260 259 260 261 259 257 256
269 269 272 272 273 273 274 274 274 274 272 271 269 269 273 268 268 268 267 265 264 264 263 265 263 262 261 262 262 261 261 260 259 260 261 261 260 259 258 257 257 257 256
267 268 269 268 269 270 269 269 270 269 268 267 266 264 264 263 262 261 260 259 259 258 258 259 260 256 254 253 255 258 259 260 261 261 260 259 258 257 256 257 256 254 255
265 266 265 265 266 265 265 264 264 264 264 263 262 262 262 261 260 260 259 258 257 256 255 255 255 255 256 258 258 258 258 257 257 258 258 257 256 256 255 252 255 254 255
263 263 262 262 262 262 262 261 261 260 259 258 258 257 257 257 257 255 255 256 257 255 255 254 253 252 253 254 252 251 252 259 253 255 252 252 253 254 255 255 253 253 254
261 261 260 261 260 260 260 259 259 259 259 258 258 257 255 254 254 253 252 251 251 251 250 249 249 249 249 248 248 251 253 258 252 253 249 250 250 250 250 251 253 254 254
Wind_Speed
4 4 5 5 5 5 6 6 6 5 7 8 8 9 9 10 10 11 11 11 13 12 11 13 15 13 8 7 7 7 6 4 4 2 2 4 10 12 8 7 6 5 4
4 4 6 6 5 6 6 7 6 7 6 7 7 8 8 9 9 11 12 10 12 12 12 12 13 8 10 9 9 11 10 5 4 6 2 3 5 11 9 8 6 4 4
5 6 6 6 6 7 7 6 6 7 7 6 6 7 8 8 8 9 10 11 12 12 12 12 12 11 10 9 9 10 8 6 4 5 4 2 3 6 5 3 4 3 3
6 6 7 7 7 7 7 7 6 7 7 6 7 7 7 6 7 7 7 7 8 9 9 11 11 14 13 12 10 10 9 8 5 5 3 4 3 3 4 5 3 1 2
6 7 9 7 6 7 7 7 7 7 7 6 6 6 6 6 6 8 8 8 9 7 6 6 8 9 13 14 10 10 12 9 6 7 7 6 4 4 6 3 3 3 3
6 7 7 7 7 7 7 7 7 7 7 6 6 7 6 5 12 15 10 8 7 8 7 6 6 9 13 18 18 20 15 10 10 7 4 7 5 5 5 5 4 3 2
7 7 7 7 7 7 6 6 7 7 6 7 6 5 6 6 13 15 14 6 7 8 8 8 7 6 10 10 16 16 15 20 19 8 12 7 8 9 10 6 4 4 3
8 8 7 7 7 7 6 7 6 5 7 6 6 6 5 6 13 14 13 5 6 8 9 11 11 11 11 12 11 11 9 8 9 5 9 9 6 9 9 6 7 4 2
8 8 7 6 7 6 7 6 4 3 3 4 3 6 9 8 15 16 14 7 7 8 8 9 10 11 18 20 13 12 11 6 9 12 11 15 17 18 12 7 4 5 3
8 9 8 6 6 7 6 5 3 3 4 3 4 5 7 8 14 17 15 6 7 6 6 8 13 11 19 21 12 13 13 8 9 9 8 13 14 14 18 8 7 5 3
6 7 7 7 6 5 5 2 3 3 3 4 5 4 6 7 7 17 20 8 6 6 6 6 6 19 21 22 18 12 14 11 13 9 8 6 5 4 3 4 6 4 4
6 6 6 6 6 5 4 3 3 4 4 4 3 2 2 3 8 14 19 15 10 5 5 4 5 17 21 24 19 21 17 15 8 6 5 5 5 5 5 4 5 4 3
5 6 5 5 3 4 4 4 3 3 3 4 4 4 3 2 3 13 15 18 12 6 4 9 14 20 24 21 19 17 15 7 7 6 7 4 3 5 8 6 5 6 5
6 6 5 4 5 3 2 2 3 3 3 3 4 4 3 3 4 4 4 9 12 9 11 10 13 13 15 11 9 11 6 6 7 6 4 4 5 5 4 4 3 2 3
6 6 5 3 4 4 4 4 4 4 4 3 4 3 4 4 6 7 7 8 7 8 7 5 7 7 7 6 6 7 7 6 6 4 4 4 4 5 3 2 3 2 3
8 5 5 4 4 3 3 3 8 9 10 12 10 6 2 5 9 13 10 14 14 15 3 5 6 7 7 5 5 4 3 7 5 5 5 6 7 7 6 3 2 3 3
7 8 5 4 3 3 1 1 2 3 8 9 9 8 8 6 9 14 14 16 18 17 6 6 6 5 2 4 4 3 4 4 4 5 5 7 6 5 7 5 2 3 3
8 10 8 5 3 3 2 2 2 1 1 2 7 3 7 8 8 10 14 16 9 10 5 7 6 6 5 5 4 4 3 4 4 4 4 5 6 5 4 5 6 4 3
7 6 7 4 3 3 3 2 2 1 2 1 2 4 8 3 3 9 12 4 4 5 5 4 5 6 6 6 6 5 6 6 5 5 5 5 5 5 4 5 5 7 6
7 9 7 3 2 2 2 2 2 2 2 2 2 2 3 4 3 2 3 2 3 3 4 6 6 5 5 6 5 5 5 4 5 5 5 5 5 6 6 6 5 4 6
6 5 4 1 2 1 1 3 2 2 2 3 3 3 5 1 1 2 3 4 4 3 3 2 2 3 2 2 3 3 3 3 4 4 5 5 5 5 4 5 5 5 4
4 3 3 3 3 3 3 3 3 3 3 3 3 4 10 3 3 3 3 4 4 4 3 3 3 2 1 2 2 3 3 3 3 4 5 5 5 5 5 4 5 5 5
4 3 3 4 3 3 4 5 4 4 4 4 3 2 2 3 3 4 4 3 3 3 3 3 3 2 2 2 1 3 4 3 4 4 4 4 5 5 5 5 5 3 4
5 5 4 3 3 4 5 5 5 6 4 4 3 3 3 3 3 3 2 2 2 2 3 2 2 2 1 1 0 1 0 1 2 3 5 4 4 5 3 3 5 5 6
6 5 5 5 5 5 5 5 5 3 4 3 3 2 2 3 2 2 2 2 2 2 3 3 2 2 2 1 1 1 2 3 4 4 3 5 6 8 6 6 4 4 4
6 5 5 5 5 5 5 4 4 4 4 3 3 2 2 2 2 2 2 2 2 2 3 3 3 3 3 3 3 4 4 5 4 5 4 4 4 4 4 5 7 4 5
Wind_Direction
255 242 232 236 233 223 225 234 229 211 202 202 202 211 213 213 213 209 210 200 204 208 202 209 213 212 202 181 176 175 173 157 136 176 149 165 183 186 177 168 180 184 202
262 257 252 247 237 237 233 231 229 226 210 207 197 204 211 213 211 215 214 207 205 208 209 208 213 203 197 187 183 186 183 162 133 143 141 139 196 184 162 164 172 182 186
291 281 279 264 255 253 251 245 228 235 224 208 200 202 205 214 214 219 220 215 214 215 209 206 209 191 192 182 184 179 163 161 128 139 147 154 108 160 140 130 167 187 190
281 273 269 259 245 247 244 237 225 223 221 210 206 208 210 216 220 219 218 221 222 218 208 206 199 195 192 184 176 171 158 157 152 127 109 133 113 127 137 151 166 165 200
279 271 267 271 249 250 248 241 232 215 218 211 211 217 213 214 218 211 208 214 213 207 200 196 193 197 186 181 169 165 160 161 149 155 154 148 122 143 182 153 148 159 188
315 296 295 289 273 258 258 245 229 223 218 207 219 219 213 218 229 227 213 208 206 200 192 173 158 159 178 180 178 170 166 154 156 149 144 150 156 150 153 155 140 146 192
310 301 296 292 281 274 268 255 241 226 195 206 216 205 227 225 230 230 224 211 199 200 185 171 164 170 166 169 167 164 173 170 166 155 159 170 167 170 162 161 155 158 163
301 293 291 289 275 273 255 239 230 210 209 200 201 198 198 224 227 228 216 201 205 195 187 181 177 172 175 158 153 154 150 166 173 157 155 170 164 154 162 155 162 147 104
305 302 299 296 290 279 261 252 231 194 199 199 199 196 208 217 214 217 206 189 200 199 190 185 180 173 173 162 154 156 156 153 130 132 143 158 161 162 157 137 150 141 189
301 300 292 282 277 283 276 259 229 208 215 183 208 200 207 223 217 216 207 185 197 188 183 186 182 174 172 165 158 155 164 157 148 138 150 161 163 172 174 170 156 171 135
283 294 307 314 301 279 277 241 224 216 182 205 213 208 210 211 219 220 213 188 194 186 186 183 188 182 176 170 165 175 181 158 163 155 162 152 150 152 127 145 159 142 148
308 313 315 316 314 309 275 280 255 196 199 200 204 223 228 224 220 229 224 191 193 186 184 166 167 186 179 176 178 187 175 154 151 152 160 169 166 157 149 121 110 100 85
322 306 300 303 298 308 295 279 281 244 204 198 204 220 205 214 234 228 230 192 186 175 167 168 179 187 187 184 188 182 155 156 145 159 182 173 155 139 119 100 72 78 80
295 289 278 279 288 263 216 260 273 257 247 237 195 214 194 187 214 212 215 172 176 177 181 183 181 194 191 183 175 174 152 148 163 179 164 117 118 134 130 127 131 124 104
294 289 285 261 261 274 262 233 216 229 233 244 248 208 183 209 222 210 192 167 152 162 159 163 183 185 187 166 166 163 152 142 155 142 151 139 137 149 145 127 122 122 151
293 279 261 260 256 245 262 295 257 254 247 253 248 219 204 220 214 212 183 160 162 170 150 162 187 179 175 158 161 140 116 154 155 159 157 160 169 177 166 136 129 146 158
288 296 270 256 253 246 253 264 280 294 261 259 262 244 225 228 223 212 203 184 177 173 161 171 187 187 118 133 148 155 162 161 143 166 164 173 170 171 167 179 148 146 168
287 283 275 247 215 220 207 201 258 19 18 1 355 279 220 228 224 222 203 177 174 196 170 162 164 151 150 165 163 171 151 142 164 166 165 175 174 166 158 180 183 160 150
296 285 277 221 202 195 185 170 183 108 97 25 355 8 359 335 250 203 206 178 174 183 165 168 167 168 175 177 177 176 172 176 179 169 182 176 168 157 171 173 174 173 156
287 281 264 193 193 183 165 147 134 125 106 91 40 2 336 352 1 359 345 55 118 129 146 177 181 178 181 178 171 163 150 149 168 177 181 176 172 179 180 176 180 164 192
299 298 289 119 108 130 146 133 127 122 108 78 48 333 11 7 76 26 25 34 43 60 80 94 91 90 82 108 114 126 145 165 172 169 169 172 162 173 162 178 180 192 151
311 320 353 45 30 50 61 57 80 79 77 77 39 19 26 35 26 49 46 43 34 29 27 68 83 71 98 136 149 138 149 162 154 163 175 171 171 169 162 171 175 182 174
347 4 24 33 29 59 65 55 52 70 79 78 57 26 50 58 53 52 49 34 33 32 18 47 77 75 39 79 122 138 155 194 185 172 180 174 174 174 175 187 184 154 165
18 23 30 39 46 56 61 64 57 50 64 58 53 42 38 41 45 63 67 65 47 34 26 32 38 62 71 53 33 52 42 167 171 182 175 174 171 166 152 141 172 170 175
27 27 32 33 47 52 66 60 69 66 66 63 54 41 35 31 31 26 26 30 27 27 16 11 11 15 8 315 251 225 241 242 177 176 153 147 168 174 183 188 163 166 170
33 34 38 38 42 45 48 53 46 40 36 34 24 18 16 358 336 345 353 1 353 334 311 292 288 283 274 261 252 237 229 234 201 185 155 150 163 172 167 167 173 178 180